Change the Weather History Date:

Sunday, January 27, 2013

  Actual Average Record
Temperature  
Mean Temperature 56 °F -  
Max Temperature 69 °F 44 °F 78 °F (2015)
Min Temperature 42 °F 28 °F 15 °F (1997)
Degree Days  
Heating Degree Days 10    
Growing Degree Days 6 (Base 50)    
Moisture  
Dew Point 50 °F    
Average Humidity 89    
Maximum Humidity 100    
Minimum Humidity 60    
Precipitation  
Precipitation 0.00 in - - ()
Sea Level Pressure  
Sea Level Pressure 29.87 in    
Wind  
Wind Speed 15 mph (South)    
Max Wind Speed 29 mph    
Max Gust Speed 37 mph    
Visibility 6 miles    
Events Fog , Rain    
Averages and records for this station are not official NWS values.
T = Trace of Precipitation, MM = Missing Value Source: NWS Daily Summary

Daily Weather History Graph

Daily Weather History Graph

Search for Another Location

Airport or City:

Trip Planner

Search our weather history database for the weather conditions in past years. The results will help you decide how hot, cold, wet, or windy it might be!

Date:

Astronomy

Jan. 27, 2013 Rise Set
Actual Time 7:35 AM CST 5:52 PM CST
Civil Twilight 7:08 AM CST 6:19 PM CST
Nautical Twilight 6:37 AM CST 6:50 PM CST
Astronomical Twilight 6:07 AM CST 7:21 PM CST
Moon 6:44 PM CST (1/27) 7:32 AM CST (1/27)
Length of Visible Light 11h 11m
Length of Day
10h 16m
Full, 100% of the Moon is Illuminated
Jan 27
Full
Feb 3
Last Quarter
Feb 10
New
Feb 17
First Quarter
Feb 25
Full

Hourly Weather History & Observations

Time (CST) Temp. Windchill Dew Point Humidity Pressure Visibility Wind Dir Wind Speed Gust Speed Precip Events Conditions
12:15 AM 42.8 °F 36.6 °F 42.8 °F 100% 29.99 in 4.0 mi SSE 11.5 mph - N/A   Overcast
12:35 AM 42.8 °F 35.8 °F 42.8 °F 100% 30.00 in 4.0 mi SSE 13.8 mph - N/A   Overcast
12:55 AM 42.8 °F 36.2 °F 42.8 °F 100% 29.98 in 4.0 mi SSE 12.7 mph - N/A   Overcast
1:15 AM 42.8 °F 38.0 °F 42.8 °F 100% 29.99 in 4.0 mi SSE 8.1 mph - N/A   Overcast
1:35 AM 42.8 °F 37.5 °F 42.8 °F 100% 30.00 in 4.0 mi South 9.2 mph - N/A   Overcast
1:55 AM 42.8 °F 38.0 °F 42.8 °F 100% 29.99 in 4.0 mi South 8.1 mph - N/A   Overcast
2:15 AM 42.8 °F 37.0 °F 42.8 °F 100% 29.98 in 4.0 mi SSE 10.4 mph - N/A   Overcast
2:35 AM 42.8 °F 36.2 °F 42.8 °F 100% 29.97 in 2.0 mi SSE 12.7 mph - N/A   Overcast
2:55 AM 42.8 °F 35.4 °F 42.8 °F 100% 29.96 in 1.0 mi South 15.0 mph - N/A   Overcast
3:15 AM 44.6 °F 36.9 °F 42.8 °F 93% 29.94 in 0.8 mi SSE 18.4 mph - N/A   Overcast
3:35 AM 44.6 °F 37.4 °F 44.6 °F 100% 29.94 in 0.5 mi South 16.1 mph - N/A   Light Drizzle
3:55 AM 44.6 °F 38.1 °F 44.6 °F 100% 29.93 in 0.5 mi South 13.8 mph - N/A Rain Light Rain
4:15 AM 44.6 °F 37.8 °F 44.6 °F 100% 29.92 in 0.5 mi South 15.0 mph - N/A Fog Fog
4:35 AM 44.6 °F 37.4 °F 44.6 °F 100% 29.92 in 0.5 mi South 16.1 mph - N/A Fog Fog
4:55 AM 46.4 °F 38.7 °F 46.4 °F 100% 29.91 in 0.8 mi South 20.7 mph - N/A   Overcast
6:17 AM 48.2 °F - 48.2 °F 100% 29.89 in 2.0 mi South 17.3 mph 23.0 mph N/A   Overcast
6:55 AM 50.0 °F - 50.0 °F 100% 29.89 in 5.0 mi South 17.3 mph 23.0 mph N/A   Overcast
7:55 AM 50.0 °F - 50.0 °F 100% 29.89 in 5.0 mi South 23.0 mph 27.6 mph N/A   Overcast
8:55 AM 51.8 °F - 50.0 °F 94% 29.89 in 3.0 mi South 23.0 mph 29.9 mph N/A   Overcast
9:55 AM 51.8 °F - 51.8 °F 100% 29.87 in 3.0 mi South 23.0 mph 32.2 mph N/A   Overcast
10:50 AM 55.4 °F - 53.6 °F 94% 29.87 in 5.0 mi South 23.0 mph 32.2 mph N/A   Overcast
11:50 AM 59.0 °F - 55.4 °F 88% 29.84 in 7.0 mi South 26.5 mph 36.8 mph N/A   Mostly Cloudy
12:50 PM 64.4 °F - 55.4 °F 73% 29.80 in 10.0 mi SSW 28.8 mph 36.8 mph N/A   Mostly Cloudy
1:50 PM 66.2 °F - 55.4 °F 68% 29.78 in 10.0 mi South 26.5 mph 32.2 mph N/A   Mostly Cloudy
3:50 PM 69.8 °F - 55.4 °F 60% 29.75 in 7.0 mi South 28.8 mph 35.7 mph N/A   Mostly Cloudy
4:50 PM 68.0 °F - 55.4 °F 64% 29.75 in 10.0 mi South 27.6 mph 34.5 mph N/A   Mostly Cloudy
5:50 PM 66.2 °F - 55.4 °F 68% 29.75 in 10.0 mi South 24.2 mph 32.2 mph N/A   Scattered Clouds
6:50 PM 64.4 °F - 55.4 °F 73% 29.77 in 10.0 mi South 17.3 mph - N/A   Scattered Clouds
8:15 PM 59.0 °F - 53.6 °F 82% 29.79 in 10.0 mi SSE 9.2 mph - N/A   Clear
8:35 PM 60.8 °F - 53.6 °F 77% 29.79 in 10.0 mi SSE 8.1 mph - N/A   Clear
8:50 PM 60.8 °F - 55.4 °F 82% 29.79 in 10.0 mi South 11.5 mph - N/A   Clear
8:55 PM 59.0 °F - 53.6 °F 82% 29.79 in 10.0 mi South 10.4 mph - N/A   Clear
9:15 PM 60.8 °F - 55.4 °F 82% 29.79 in 10.0 mi South 12.7 mph - N/A   Clear
9:35 PM 60.8 °F - 55.4 °F 82% 29.79 in 10.0 mi South 15.0 mph 20.7 mph N/A   Clear
9:55 PM 60.8 °F - 55.4 °F 82% 29.79 in 10.0 mi South 15.0 mph - N/A   Clear
10:15 PM 60.8 °F - 55.4 °F 82% 29.80 in 10.0 mi South 16.1 mph - N/A   Clear
10:35 PM 60.8 °F - 55.4 °F 82% 29.80 in 10.0 mi South 16.1 mph - N/A   Clear
10:55 PM 60.8 °F - 55.4 °F 82% 29.80 in 10.0 mi South 15.0 mph 20.7 mph N/A   Clear
11:15 PM 60.8 °F - 55.4 °F 82% 29.81 in 10.0 mi SSE 15.0 mph 20.7 mph N/A   Clear
11:35 PM 60.8 °F - 55.4 °F 82% 29.81 in 10.0 mi South 16.1 mph - N/A   Clear
11:55 PM 59.0 °F - 53.6 °F 82% 29.81 in 10.0 mi South 12.7 mph - N/A   Clear